Regional Weather Roundup
Issued by NWS

Home | Current Version | Previous Version | Graphics & Text | Print | Product List | Glossary On
Versions: 1 2 3 4 5 6 7 8 9 10 11 12 13 14 15 16 17 18 19 20 21 22 23 24 25 26 27 28 29 30 31 32 33 34 35 36 37 38 39 40 41 42 43 44 45 46 47 48 49 50
000
ASUS43 KDMX 231806
RWRIA

WEATHER ROUNDUP FOR IOWA
NATIONAL WEATHER SERVICE DES MOINES IA
100 PM CDT TUE MAY 23 2017

NOTE: "FAIR" INDICATES FEW OR NO CLOUDS BELOW 12,000 FEET WITH NO
SIGNIFICANT WEATHER AND/OR OBSTRUCTIONS TO VISIBILITY.

* - THESE STATIONS ARE NOT NWS STATIONS...THUS NOT UNDER NWS
QUALITY CONTROL.  THEY ALSO DO NOT REPORT WEATHER SUCH
AS PRECIPITATION OR FOG.

IAZ001>003-012>014-020>022-031>034-043>046-231900-
   NORTHWEST IOWA

CITY           SKY/WX    TMP DP  RH WIND       PRES   REMARKS
CARROLL *      CLOUDY    57  46  67 NW15      29.83S
CHEROKEE *     CLOUDY    55  47  74 NW9G16    29.84F
DENISON *      CLOUDY    57  46  67 NW15      29.85F
LE MARS *      CLOUDY    55  46  71 N13       29.87F
ORANGE CITY *  CLOUDY    54  46  76 N9G20     29.85F
SHELDON *      CLOUDY    52  46  82 N15         N/A
SIOUX CITY     CLOUDY    56  49  77 NW15      29.88F
6HR MIN TEMP:  48; 6HR MAX TEMP:  56; 6HR PCP: TRACE;

SPENCER        CLOUDY    54  45  71 N14       29.83F
6HR MIN TEMP:  48; 6HR MAX TEMP:  57;

STORM LAKE *     N/A     54  43  66 N14       29.83F
$$

IAZ055>058-069>071-079>083-090>094-231900-
   SOUTHWEST IOWA

CITY           SKY/WX    TMP DP  RH WIND       PRES   REMARKS
ATLANTIC *     CLOUDY    57  46  67 NW12      29.84F
AUDUBON *      CLOUDY    55  46  71 NW15G21   29.84F
CLARINDA *     CLOUDY    59  45  58 NW17      29.87F
COUNCIL BLFS *   N/A     57  45  62 NW14G22   29.86F
CRESTON *      CLOUDY    57  45  62 NW20      29.83F
HARLAN  *      CLOUDY    57  45  62 NW14G21   29.88S
LAMONI         CLOUDY    60  44  55 NW15G23   29.81F
6HR MIN TEMP:  51; 6HR MAX TEMP:  62;

RED OAK *      CLOUDY    61  46  59 W12G20    29.85F
SHENANDOAH *   CLOUDY    59  45  58 NW16      29.87F
$$

IAZ047>049-059>061-072>074-084-231900-
   CENTRAL IOWA

CITY           SKY/WX    TMP DP  RH WIND       PRES   REMARKS
AMES           LGT RAIN  52  48  86 NW12      29.81F
6HR MIN TEMP:  49; 6HR MAX TEMP:  58; 6HR PCP:  0.10;

ANKENY *       LGT RAIN  55  48  76 NW12G20   29.81F
BOONE *        CLOUDY    54  48  82 NW9       29.80F
DES MOINES     LGT RAIN  60  45  57 NW18G24   29.80F
6HR MIN TEMP:  52; 6HR MAX TEMP:  61; 6HR PCP: TRACE;

GRINNELL*      CLOUDY    58  47  66 W7        29.80S
MARSHALLTOWN   LGT RAIN  55  48  77 NW15      29.78F
6HR MIN TEMP:  51; 6HR MAX TEMP:  59; 6HR PCP:  0.03;

NEWTON *       CLOUDY    54  50  87 N6        29.79S FOG
PELLA *        CLOUDY    58  46  63 NW10      29.80F
PERRY *        CLOUDY    56  48  74 W13       29.83S
$$

IAZ004>006-015-016-023>025-035-036-231900-
   NORTH CENTRAL IOWA

CITY           SKY/WX    TMP DP  RH WIND       PRES   REMARKS
ALGONA *       PTSUNNY   55  45  67 N13       29.81F
CLARION *      CLOUDY    54  48  82 N8        29.81S
ESTHERVILLE    CLOUDY    53  46  77 N18       29.82F
6HR MIN TEMP:  46; 6HR MAX TEMP:  54; 6HR PCP: TRACE;

FORT DODGE *   CLOUDY    55  48  76 N6        29.82F
MASON CITY     CLOUDY    54  44  69 N7        29.80F
6HR MIN TEMP:  50; 6HR MAX TEMP:  54;

FOREST CITY *  CLOUDY    59  39  47 NW6       29.79F
WEBSTER CITY * CLOUDY    54  48  82 N13       29.79F
IOWA FALLS *   CLOUDY    56  47  71 NW12      29.80F
$$

IAZ007>011-017>019-026>030-037>042-050>054-066-231900-
   NORTHEAST IOWA

CITY           SKY/WX    TMP DP  RH WIND       PRES   REMARKS
CEDAR RAPIDS   CLOUDY    60  50  69 NW10      29.75F
6HR MIN TEMP:  50; 6HR MAX TEMP:  61;

CHARLES CITY * CLOUDY    55  50  82 W9        29.78F
CLINTON *      CLOUDY    62  54  74 SW8       29.74F
DECORAH *      CLOUDY    55  50  82 NW8       29.75F
DUBUQUE        CLOUDY    57  50  77 W6        29.75F
6HR MIN TEMP:  52; 6HR MAX TEMP:  58;

MONTICELLO *   CLOUDY    59  50  72 NW7       29.74F
OELWEIN *      DRIZZLE   54  52  94 W13       29.77S
WATERLOO       CLOUDY    59  47  64 NW10      29.76F
6HR MIN TEMP:  51; 6HR MAX TEMP:  60; 6HR PCP:  0.01;

$$

IAZ064-065-067-068-078-231900-
   EAST CENTRAL IOWA

CITY           SKY/WX    TMP DP  RH WIND       PRES   REMARKS
DAVENPORT      CLOUDY    61  53  75 W13       29.75F
6HR MIN TEMP:  55; 6HR MAX TEMP:  62;

IOWA CITY      CLOUDY    61  49  64 NW5       29.77F
6HR MIN TEMP:  53; 6HR MAX TEMP:  61;

MT. PLEASANT * CLOUDY    56  51  81 NW7       29.78S
MUSCATINE *    CLOUDY    59  52  77 W10       29.77F
QUAD CITIES      N/A    N/A N/A N/A MISG      29.74F
$$

IAZ062-063-075>077-085>089-095>099-231900-
   SOUTHEAST IOWA

CITY           SKY/WX    TMP DP  RH WIND       PRES   REMARKS
BURLINGTON     LGT RAIN  58  56  93 W7        29.76F FOG
6HR MIN TEMP:  57; 6HR MAX TEMP:  61; 6HR PCP:  0.03;

FAIRFIELD *    CLOUDY    59  48  67 NW10      29.78F
FORT MADISON * LGT RAIN  57  55  94 W8        29.78F
KEOKUK *       CLOUDY    57  54  88 NW9       29.77F
OSKALOOSA *    CLOUDY    62  47  59 N8        29.78F
CENTERVILLE *    N/A     64  48  55 W5        29.80F
OTTUMWA        MOSUNNY   63  48  58 NW8       29.77F
6HR MIN TEMP:  52; 6HR MAX TEMP:  65;

WASHINGTON *   CLOUDY    61  52  72 NW8       29.78F
$$

ABBREVIATIONS USED IN REMARKS
   TC - TEMPERATURES IN CELSIUS
  WCI - WIND CHILL INDEX
   HX - HEAT INDEX
  VSB - VISIBILITY
$$





USA.gov is the U.S. government's official web portal to all federal, state and local government web resources and services.